Time,TemperatureF,DewpointF,PressureIn,WindDirection,WindDirectionDegrees,WindSpeedMPH,WindSpeedGustMPH,Humidity,HourlyPrecipIn,Conditions,Clouds,dailyrainin,SoftwareType,DateUTC
2013-03-11 00:00:00,53.8,32.4,30.23,SE,130,6.0,8.0,44,0.00,,---,0.00,VWS V14.01,2013-03-11 04:00:00,
2013-03-11 00:05:00,53.6,32.2,30.23,ESE,120,5.0,7.0,44,0.00,,---,0.00,VWS V14.01,2013-03-11 04:05:00,
2013-03-11 00:10:00,53.5,32.1,30.23,SE,143,6.0,8.0,44,0.00,,---,0.00,VWS V14.01,2013-03-11 04:10:00,
2013-03-11 00:15:00,53.3,31.4,30.23,SE,124,7.0,7.0,43,0.00,,---,0.00,VWS V14.01,2013-03-11 04:15:00,
2013-03-11 00:20:00,53.2,30.7,30.22,SE,130,9.0,10.0,42,0.00,,---,0.00,VWS V14.01,2013-03-11 04:20:00,
2013-03-11 00:25:00,53.0,30.0,30.22,SSE,153,6.0,10.0,41,0.00,,---,0.00,VWS V14.01,2013-03-11 04:25:00,
2013-03-11 00:30:00,52.9,29.2,30.22,SE,146,8.0,11.0,40,0.00,,---,0.00,VWS V14.01,2013-03-11 04:30:00,
2013-03-11 00:35:00,52.7,29.1,30.22,SE,135,9.0,10.0,40,0.00,,---,0.00,VWS V14.01,2013-03-11 04:35:00,
2013-03-11 00:40:00,52.5,28.9,30.22,SE,124,4.0,9.0,40,0.00,,---,0.00,VWS V14.01,2013-03-11 04:40:00,
2013-03-11 00:45:00,52.4,28.8,30.22,SE,135,4.0,10.0,40,0.00,,---,0.00,VWS V14.01,2013-03-11 04:45:00,
2013-03-11 00:50:00,52.2,28.6,30.22,SSE,148,4.0,10.0,40,0.00,,---,0.00,VWS V14.01,2013-03-11 04:50:00,
2013-03-11 00:55:00,52.0,28.5,30.22,SE,134,4.0,7.0,40,0.00,,---,0.00,VWS V14.01,2013-03-11 04:55:00,
2013-03-11 01:00:00,51.8,28.3,30.21,SE,132,7.0,7.0,40,0.00,,---,0.00,VWS V14.01,2013-03-11 05:00:00,
2013-03-11 01:05:00,51.6,28.1,30.21,SE,130,5.0,7.0,40,0.00,,---,0.00,VWS V14.01,2013-03-11 05:05:00,
2013-03-11 01:10:00,51.4,27.9,30.21,SE,139,4.0,7.0,40,0.00,,---,0.00,VWS V14.01,2013-03-11 05:10:00,
2013-03-11 01:15:00,51.3,27.8,30.21,SE,131,4.0,6.0,40,0.00,,---,0.00,VWS V14.01,2013-03-11 05:15:00,
2013-03-11 01:20:00,51.1,27.6,30.21,East,101,5.0,7.0,40,0.00,,---,0.00,VWS V14.01,2013-03-11 05:20:00,
2013-03-11 01:25:00,50.9,26.8,30.20,SE,127,6.0,9.0,39,0.00,,---,0.00,VWS V14.01,2013-03-11 05:25:00,
2013-03-11 01:30:00,50.7,26.7,30.21,SE,126,5.0,7.0,39,0.00,,---,0.00,VWS V14.01,2013-03-11 05:30:00,
2013-03-11 01:35:00,50.6,26.6,30.21,SE,139,5.0,7.0,39,0.00,,---,0.00,VWS V14.01,2013-03-11 05:35:00,
2013-03-11 01:41:00,50.5,25.9,30.21,SE,139,3.0,7.0,38,0.00,,---,0.00,VWS V14.01,2013-03-11 05:41:00,
2013-03-11 01:46:00,50.4,25.8,30.21,SE,135,5.0,6.0,38,0.00,,---,0.00,VWS V14.01,2013-03-11 05:46:00,
2013-03-11 01:51:00,50.3,25.7,30.21,SE,127,4.0,6.0,38,0.00,,---,0.00,VWS V14.01,2013-03-11 05:51:00,
2013-03-11 01:56:00,50.2,25.6,30.21,ESE,110,5.0,7.0,38,0.00,,---,0.00,VWS V14.01,2013-03-11 05:56:00,
2013-03-11 02:01:00,50.0,25.4,30.21,ESE,122,3.0,5.0,38,0.00,,---,0.00,VWS V14.01,2013-03-11 06:01:00,
2013-03-11 02:06:00,49.9,25.3,30.20,SE,124,5.0,6.0,38,0.00,,---,0.00,VWS V14.01,2013-03-11 06:06:00,
2013-03-11 02:11:00,49.8,24.6,30.20,SE,124,5.0,6.0,37,0.00,,---,0.00,VWS V14.01,2013-03-11 06:11:00,
2013-03-11 02:16:00,49.7,23.9,30.20,SE,129,5.0,7.0,36,0.00,,---,0.00,VWS V14.01,2013-03-11 06:16:00,
2013-03-11 02:21:00,49.6,23.8,30.20,ESE,122,5.0,6.0,36,0.00,,---,0.00,VWS V14.01,2013-03-11 06:21:00,
2013-03-11 02:26:00,49.4,22.9,30.20,SE,132,5.0,7.0,35,0.00,,---,0.00,VWS V14.01,2013-03-11 06:26:00,
2013-03-11 02:32:00,49.3,22.1,30.21,ESE,118,4.0,6.0,34,0.00,,---,0.00,VWS V14.01,2013-03-11 06:32:00,
2013-03-11 02:37:00,49.2,22.0,30.21,SE,132,5.0,5.0,34,0.00,,---,0.00,VWS V14.01,2013-03-11 06:37:00,
2013-03-11 02:42:00,49.1,22.0,30.21,SE,139,3.0,5.0,34,0.00,,---,0.00,VWS V14.01,2013-03-11 06:42:00,
2013-03-11 02:47:00,48.9,21.8,30.20,SE,129,4.0,5.0,34,0.00,,---,0.00,VWS V14.01,2013-03-11 06:47:00,
2013-03-11 02:52:00,48.8,21.7,30.20,SE,124,4.0,5.0,34,0.00,,---,0.00,VWS V14.01,2013-03-11 06:52:00,
2013-03-11 02:57:00,48.6,21.5,30.19,SE,124,4.0,7.0,34,0.00,,---,0.00,VWS V14.01,2013-03-11 06:57:00,
2013-03-11 03:03:00,48.3,21.9,30.18,ESE,118,4.0,8.0,35,0.00,,---,0.00,VWS V14.01,2013-03-11 07:03:00,
2013-03-11 03:08:00,48.2,22.5,30.18,SE,128,5.0,8.0,36,0.00,,---,0.00,VWS V14.01,2013-03-11 07:08:00,
2013-03-11 03:13:00,47.8,22.8,30.18,ESE,122,4.0,7.0,37,0.00,,---,0.00,VWS V14.01,2013-03-11 07:13:00,
2013-03-11 03:18:00,47.5,22.5,30.18,SE,124,5.0,6.0,37,0.00,,---,0.00,VWS V14.01,2013-03-11 07:18:00,
2013-03-11 03:23:00,47.4,22.5,30.18,SE,124,5.0,7.0,37,0.00,,---,0.00,VWS V14.01,2013-03-11 07:23:00,
2013-03-11 03:28:00,47.4,21.8,30.18,ESE,110,4.0,6.0,36,0.00,,---,0.00,VWS V14.01,2013-03-11 07:28:00,
2013-03-11 03:33:00,47.3,21.0,30.18,ESE,122,4.0,5.0,35,0.00,,---,0.00,VWS V14.01,2013-03-11 07:33:00,
2013-03-11 03:38:00,47.3,21.0,30.18,ESE,117,4.0,6.0,35,0.00,,---,0.00,VWS V14.01,2013-03-11 07:38:00,
2013-03-11 03:43:00,47.3,21.0,30.18,ESE,107,3.0,5.0,35,0.00,,---,0.00,VWS V14.01,2013-03-11 07:43:00,
2013-03-11 03:48:00,47.2,21.0,30.17,SE,134,2.0,4.0,35,0.00,,---,0.00,VWS V14.01,2013-03-11 07:48:00,
2013-03-11 03:53:00,46.9,20.7,30.17,SE,124,3.0,5.0,35,0.00,,---,0.00,VWS V14.01,2013-03-11 07:53:00,
2013-03-11 03:58:00,46.9,20.7,30.17,ESE,118,4.0,5.0,35,0.00,,---,0.00,VWS V14.01,2013-03-11 07:58:00,
2013-03-11 04:03:00,46.9,20.7,30.16,SE,134,5.0,5.0,35,0.00,,---,0.00,VWS V14.01,2013-03-11 08:03:00,
2013-03-11 04:08:00,46.8,19.9,30.16,ESE,120,4.0,6.0,34,0.00,,---,0.00,VWS V14.01,2013-03-11 08:08:00,
2013-03-11 04:13:00,46.8,19.9,30.16,ESE,117,5.0,6.0,34,0.00,,---,0.00,VWS V14.01,2013-03-11 08:13:00,
2013-03-11 18:35:00,66.5,49.8,29.90,SE,135,8.0,19.0,55,0.00,,---,0.00,VWS V14.01,2013-03-11 22:35:00,
2013-03-11 18:48:00,66.3,50.2,29.91,SE,128,7.0,10.0,56,0.00,,---,0.00,VWS V14.01,2013-03-11 22:48:00,
2013-03-11 18:53:00,66.3,50.2,29.92,SSE,160,10.0,13.0,56,0.00,,---,0.00,VWS V14.01,2013-03-11 22:53:00,
2013-03-11 20:50:00,64.0,51.6,29.92,SE,135,7.0,13.0,64,0.00,,---,0.00,VWS V14.01,2013-03-12 00:50:00,
2013-03-11 21:00:00,63.5,52.0,29.89,SE,129,9.0,9.0,66,0.00,,---,0.00,VWS V14.01,2013-03-12 01:00:00,
2013-03-11 21:05:00,63.0,52.7,29.92,SE,132,14.0,19.0,69,0.00,,---,0.00,VWS V14.01,2013-03-12 01:05:00,
2013-03-11 21:10:00,62.7,52.8,29.92,South,187,13.0,14.0,70,0.00,,---,0.00,VWS V14.01,2013-03-12 01:10:00,
2013-03-11 21:15:00,62.6,52.7,29.91,SE,134,14.0,16.0,70,0.00,,---,0.00,VWS V14.01,2013-03-12 01:15:00,
2013-03-11 21:20:00,62.7,52.8,29.91,SSE,147,10.0,14.0,70,0.00,,---,0.00,VWS V14.01,2013-03-12 01:20:00,
2013-03-11 21:25:00,62.6,52.7,29.90,SSE,165,6.0,13.0,70,0.00,,---,0.00,VWS V14.01,2013-03-12 01:25:00,
2013-03-11 21:30:00,62.7,53.2,29.90,SSE,153,10.0,16.0,71,0.00,,---,0.00,VWS V14.01,2013-03-12 01:30:00,
2013-03-11 21:35:00,62.7,53.2,29.91,SSE,148,12.0,14.0,71,0.00,,---,0.00,VWS V14.01,2013-03-12 01:35:00,
2013-03-11 21:40:00,62.7,53.2,29.91,SE,138,12.0,17.0,71,0.00,,---,0.00,VWS V14.01,2013-03-12 01:40:00,
2013-03-11 21:45:00,62.4,53.6,29.91,SSE,157,14.0,18.0,73,0.00,,---,0.00,VWS V14.01,2013-03-12 01:45:00,
2013-03-11 21:50:00,62.1,53.7,29.92,SE,130,12.0,16.0,74,0.00,,---,0.00,VWS V14.01,2013-03-12 01:50:00,
2013-03-11 21:55:00,61.6,54.0,29.91,SE,127,11.0,19.0,76,0.00,,---,0.00,VWS V14.01,2013-03-12 01:55:00,
2013-03-11 22:00:00,61.4,54.1,29.89,SE,141,11.0,19.0,77,0.00,,---,0.00,VWS V14.01,2013-03-12 02:00:00,
2013-03-11 22:06:00,61.0,54.5,29.90,SE,146,10.0,21.0,79,0.01,,---,0.01,VWS V14.01,2013-03-12 02:06:00,
2013-03-11 22:11:00,60.6,54.4,29.90,SSE,147,17.0,19.0,80,0.01,,---,0.01,VWS V14.01,2013-03-12 02:11:00,
2013-03-11 22:16:00,60.5,54.7,29.90,SW,226,11.0,18.0,81,0.01,,---,0.01,VWS V14.01,2013-03-12 02:16:00,
2013-03-11 22:21:00,60.3,54.8,29.90,SE,145,12.0,16.0,82,0.01,,---,0.01,VWS V14.01,2013-03-12 02:21:00,
2013-03-11 22:26:00,60.0,54.8,29.89,ESE,114,7.0,11.0,83,0.02,,---,0.02,VWS V14.01,2013-03-12 02:26:00,
2013-03-11 22:32:00,59.8,55.0,29.88,SE,143,15.0,18.0,84,0.02,,---,0.02,VWS V14.01,2013-03-12 02:32:00,
2013-03-11 22:37:00,59.6,54.8,29.88,ESE,116,8.0,16.0,84,0.02,,---,0.02,VWS V14.01,2013-03-12 02:37:00,
2013-03-11 22:42:00,59.3,54.8,29.89,South,174,8.0,14.0,85,0.02,,---,0.02,VWS V14.01,2013-03-12 02:42:00,
2013-03-11 22:47:00,59.2,54.7,29.89,SSE,166,7.0,16.0,85,0.03,,---,0.03,VWS V14.01,2013-03-12 02:47:00,
2013-03-11 22:52:00,59.2,55.0,29.90,SE,144,5.0,13.0,86,0.03,,---,0.03,VWS V14.01,2013-03-12 02:52:00,
2013-03-11 22:57:00,59.0,55.1,29.90,SE,129,14.0,14.0,87,0.03,,---,0.03,VWS V14.01,2013-03-12 02:57:00,
2013-03-11 23:02:00,58.8,55.0,29.90,South,173,6.0,10.0,87,0.04,,---,0.04,VWS V14.01,2013-03-12 03:02:00,
2013-03-11 23:07:00,58.7,55.2,29.89,SSE,153,5.0,10.0,88,0.04,,---,0.05,VWS V14.01,2013-03-12 03:07:00,
2013-03-11 23:12:00,58.4,55.2,29.88,ESE,115,7.0,7.0,89,0.04,,---,0.05,VWS V14.01,2013-03-12 03:12:00,
2013-03-11 23:17:00,58.2,55.0,29.88,SE,143,5.0,9.0,89,0.04,,---,0.05,VWS V14.01,2013-03-12 03:17:00,
2013-03-11 23:22:00,58.1,54.9,29.88,ESE,118,9.0,10.0,89,0.05,,---,0.06,VWS V14.01,2013-03-12 03:22:00,
2013-03-11 23:27:00,58.0,55.1,29.88,South,169,5.0,13.0,90,0.05,,---,0.06,VWS V14.01,2013-03-12 03:27:00,
2013-03-11 23:32:00,58.0,54.8,29.88,SE,130,10.0,16.0,89,0.04,,---,0.06,VWS V14.01,2013-03-12 03:32:00,
2013-03-11 23:37:00,58.0,55.1,29.88,SE,146,12.0,14.0,90,0.05,,---,0.07,VWS V14.01,2013-03-12 03:37:00,
2013-03-11 23:42:00,58.0,55.1,29.88,South,170,2.0,11.0,90,0.05,,---,0.07,VWS V14.01,2013-03-12 03:42:00,
2013-03-11 23:47:00,58.0,55.1,29.89,South,173,4.0,6.0,90,0.04,,---,0.07,VWS V14.01,2013-03-12 03:47:00,
2013-03-11 23:52:00,57.9,55.0,29.89,South,170,3.0,8.0,90,0.04,,---,0.07,VWS V14.01,2013-03-12 03:52:00,
2013-03-11 23:57:00,57.8,55.2,29.90,SSE,160,4.0,7.0,91,0.04,,---,0.07,VWS V14.01,2013-03-12 03:57:00,